| time (UTC) | temp C | wind direction | speed KPH | gust KPH | rain 1hr cm | rain 24hr cm | rain mn cm | humidity % | barometer mb |
| 20260506084602 | 23 | 90 | 0.0 | 1.6 | 0.00 | 0.00 | 0.00 | 91 | 1008.3 |
| 20260506083027 | 23 | 90 | 0.0 | 0.0 | 0.00 | 0.00 | 0.00 | 92 | 1008.4 |
| 20260506081602 | 23 | 90 | 0.0 | 0.0 | 0.00 | 0.00 | 0.00 | 91 | 1008.6 |
| 20260506080118 | 23 | 90 | 0.0 | 1.6 | 0.00 | 0.00 | 0.00 | 91 | 1008.9 |
| 20260506073033 | 24 | 90 | 0.0 | 0.0 | 0.00 | 0.00 | 0.00 | 90 | 1009.2 |
| 20260506071604 | 24 | 90 | 0.0 | 0.0 | 0.00 | 0.00 | 0.00 | 90 | 1009.3 |
| 20260506061520 | 24 | 120 | 0.0 | 3.2 | 0.00 | 0.00 | 0.00 | 90 | 1009.4 |
| 20260506060136 | 24 | 105 | 0.0 | 0.0 | 0.00 | 0.00 | 0.00 | 90 | 1009.3 |
| 20260506044532 | 24 | 342 | 0.0 | 3.2 | 0.00 | 0.00 | 0.00 | 89 | 1009.4 |
| 20260506043049 | 25 | 172 | 0.0 | 3.2 | 0.00 | 0.00 | 0.00 | 88 | 1009.5 |
| 20260506041602 | 25 | 148 | 0.0 | 3.2 | 0.00 | 0.00 | 0.00 | 88 | 1009.3 |
| 20260506040124 | 25 | 307 | 0.0 | 3.2 | 0.00 | 0.00 | 0.00 | 88 | 1009.3 |
| 20260506034529 | 25 | 27 | 0.0 | 3.2 | 0.00 | 0.00 | 0.00 | 87 | 1009.1 |
| 20260506033028 | 25 | 74 | 0.0 | 1.6 | 0.00 | 0.00 | 0.00 | 87 | 1009.1 |
| 20260506031601 | 25 | 92 | 0.0 | 3.2 | 0.00 | 0.00 | 0.00 | 87 | 1008.9 |
| 20260506030124 | 25 | 95 | 0.0 | 1.6 | 0.00 | 0.00 | 0.00 | 86 | 1008.9 |
| 20260506024557 | 25 | 19 | 0.0 | 1.6 | 0.00 | 0.00 | 0.00 | 86 | 1008.5 |
| 20260506023045 | 25 | 91 | 0.0 | 1.6 | 0.00 | 0.00 | 0.00 | 86 | 1008.3 |
| 20260506021522 | 25 | 91 | 0.0 | 4.8 | 0.00 | 0.00 | 0.00 | 85 | 1008.1 |
| 20260506020118 | 25 | 83 | 0.0 | 3.2 | 0.00 | 0.00 | 0.00 | 85 | 1007.9 |
| 20260506014518 | 25 | 77 | 0.0 | 3.2 | 0.00 | 0.00 | 0.00 | 84 | 1007.7 |
| 20260506013037 | 25 | 39 | 0.0 | 4.8 | 0.00 | 0.00 | 0.00 | 84 | 1007.5 |
| 20260506011521 | 26 | 9 | 0.0 | 3.2 | 0.00 | 0.00 | 0.00 | 84 | 1007.3 |
| 20260506010009 | 26 | 55 | 0.0 | 1.6 | 0.00 | 0.00 | 0.00 | 83 | 1007.1 |
| 20260506004550 | 26 | 67 | 0.0 | 0.0 | 0.00 | 0.00 | 0.00 | 83 | 1007.1 |
| 20260506003009 | 26 | 149 | 0.0 | 3.2 | 0.00 | 0.00 | 0.00 | 82 | 1007.0 |
| 20260506001607 | 26 | 61 | 0.0 | 1.6 | 0.00 | 0.00 | 0.00 | 81 | 1006.9 |
| 20260506000052 | 26 | 61 | 0.0 | 4.8 | 0.00 | 0.00 | 0.00 | 80 | 1006.9 |
| 20260505234611 | 27 | 38 | 0.0 | 3.2 | 0.00 | 0.00 | 0.00 | 79 | 1006.8 |
| 20260505233104 | 27 | 61 | 0.0 | 1.6 | 0.00 | 0.00 | 0.00 | 78 | 1006.9 |
| 20260505231557 | 27 | 355 | 0.0 | 1.6 | 0.00 | 0.00 | 0.00 | 78 | 1007.0 |
| 20260505230022 | 27 | 126 | 0.0 | 1.6 | 0.00 | 0.00 | 0.00 | 78 | 1006.7 |
| 20260505224557 | 27 | 313 | 0.0 | 4.8 | 0.00 | 0.00 | 0.00 | 78 | 1006.6 |
| 20260505223053 | 27 | 325 | 0.0 | 1.6 | 0.00 | 0.00 | 0.00 | 79 | 1006.8 |
| 20260505221535 | 27 | 303 | 0.0 | 3.2 | 0.00 | 0.00 | 0.00 | 79 | 1006.6 |
| 20260505220016 | 27 | 96 | 0.0 | 4.8 | 0.00 | 0.00 | 0.00 | 78 | 1006.9 |
| 20260505214557 | 27 | 30 | 0.0 | 6.4 | 0.00 | 0.00 | 0.00 | 78 | 1007.1 |
| 20260505213010 | 27 | 94 | 0.0 | 4.8 | 0.00 | 0.00 | 0.00 | 77 | 1007.5 |
| 20260505211552 | 28 | 102 | 0.0 | 3.2 | 0.00 | 0.00 | 0.00 | 77 | 1007.5 |
| 20260505210107 | 28 | 82 | 0.0 | 3.2 | 0.00 | 0.00 | 0.00 | 77 | 1007.6 |
| 20260505204556 | 28 | 121 | 0.0 | 9.7 | 0.00 | 0.00 | 0.00 | 77 | 1007.7 |
| 20260505203006 | 28 | 160 | 0.0 | 4.8 | 0.00 | 0.00 | 0.00 | 78 | 1008.0 |
| 20260505201552 | 27 | 42 | 0.0 | 1.6 | 0.00 | 0.00 | 0.00 | 78 | 1008.3 |
| 20260505200055 | 27 | 61 | 0.0 | 4.8 | 0.00 | 0.00 | 0.00 | 77 | 1008.4 |
| 20260505194502 | 27 | 351 | 0.0 | 11.3 | 0.00 | 0.00 | 0.00 | 77 | 1008.6 |
| 20260505193100 | 27 | 129 | 0.0 | 9.7 | 0.00 | 0.00 | 0.00 | 79 | 1008.5 |
| 20260505191541 | 27 | 284 | 0.0 | 3.2 | 0.00 | 0.00 | 0.00 | 81 | 1008.7 |
| 20260505190124 | 26 | 316 | 0.0 | 3.2 | 0.00 | 0.00 | 0.00 | 81 | 1008.9 |
| 20260505184536 | 26 | 115 | 0.0 | 4.8 | 0.00 | 0.00 | 0.00 | 80 | 1009.1 |
| 20260505183056 | 26 | 59 | 0.0 | 6.4 | 0.00 | 0.00 | 0.00 | 82 | 1009.2 |
| 20260505181528 | 26 | 97 | 0.0 | 0.0 | 0.00 | 0.00 | 0.00 | 84 | 1009.3 |
| 20260505180120 | 26 | 124 | 0.0 | 4.8 | 0.00 | 0.00 | 0.00 | 84 | 1009.2 |
| 20260505174548 | 25 | 153 | 0.0 | 4.8 | 0.00 | 0.00 | 0.00 | 85 | 1009.3 |
| 20260505173048 | 25 | 109 | 0.0 | 1.6 | 0.00 | 0.00 | 0.00 | 86 | 1009.5 |
| 20260505171514 | 25 | 121 | 0.0 | 0.0 | 0.00 | 0.00 | 0.00 | 86 | 1009.7 |
| 20260505170111 | 25 | 150 | 0.0 | 1.6 | 0.00 | 0.00 | 0.00 | 86 | 1009.8 |
| 20260505164540 | 25 | 153 | 0.0 | 6.4 | 0.00 | 0.00 | 0.00 | 85 | 1009.7 |
| 20260505163056 | 25 | 108 | 0.0 | 3.2 | 0.00 | 0.00 | 0.00 | 86 | 1009.9 |
| 20260505161604 | 25 | 109 | 0.0 | 1.6 | 0.00 | 0.00 | 0.00 | 86 | 1009.7 |
| 20260505153018 | 24 | 178 | 0.0 | 4.8 | 0.00 | 0.00 | 0.00 | 86 | 1009.6 |
| 20260505151556 | 24 | 82 | 0.0 | 3.2 | 0.00 | 0.00 | 0.00 | 86 | 1009.6 |
| 20260505150115 | 24 | 333 | 0.0 | 1.6 | 0.00 | 0.00 | 0.00 | 86 | 1009.6 |
| 20260505140117 | 23 | 55 | 0.0 | 8.0 | 0.00 | 0.00 | 0.00 | 88 | 1009.1 |
| 20260505124532 | 22 | 58 | 0.0 | 1.6 | 0.00 | 0.00 | 0.00 | 90 | 1008.6 |
| 20260505123046 | 22 | 57 | 0.0 | 6.4 | 0.00 | 0.00 | 0.00 | 91 | 1009.1 |
| 20260505121505 | 22 | 180 | 0.0 | 3.2 | 0.00 | 0.00 | 0.00 | 91 | 1008.9 |
| 20260505120126 | 21 | 325 | 0.0 | 1.6 | 0.00 | 0.00 | 0.00 | 91 | 1008.7 |
| 20260505114541 | 21 | 59 | 0.0 | 3.2 | 0.00 | 0.00 | 0.00 | 91 | 1008.9 |
| 20260505113039 | 21 | 133 | 0.0 | 3.2 | 0.00 | 0.00 | 0.00 | 91 | 1008.8 |
| 20260505111513 | 21 | 65 | 0.0 | 0.0 | 0.00 | 0.00 | 0.00 | 92 | 1008.7 |
| 20260505101600 | 20 | 65 | 0.0 | 0.0 | 0.00 | 0.00 | 0.00 | 92 | 1008.8 |
| 20260505100108 | 20 | 65 | 0.0 | 0.0 | 0.00 | 0.00 | 0.00 | 92 | 1008.8 |
| 20260505094559 | 20 | 65 | 0.0 | 0.0 | 0.00 | 0.00 | 0.00 | 92 | 1008.8 |
| 20260505093027 | 20 | 65 | 0.0 | 0.0 | 0.00 | 0.00 | 0.00 | 91 | 1009.1 |
| 20260505091559 | 20 | 65 | 0.0 | 0.0 | 0.00 | 0.00 | 0.00 | 91 | 1008.9 |
| 20260505090119 | 20 | 65 | 0.0 | 0.0 | 0.00 | 0.00 | 0.00 | 91 | 1009.1 |